Regional Weather Roundup
Issued by NWS Charleston, SC

Current Version | Previous Version | Graphics & Text | Print | Product List | Glossary On
Versions: 1 2 3 4 5 6 7 8 9 10 11 12 13 14 15 16 17 18 19 20 21 22 23 24 25 26 27 28 29 30 31 32 33 34 35 36 37 38 39 40 41 42 43 44 45 46 47 48 49 50
000
ASUS42 KCHS 301613
RWRCHS

REGIONAL WEATHER ROUNDUP
NATIONAL WEATHER SERVICE CHARLESTON SC
1200 PM EDT MON MAY 30 2016

NOTE: "FAIR" INDICATES FEW OR NO CLOUDS BELOW 12,000 FEET WITH NO
SIGNIFICANT WEATHER AND/OR OBSTRUCTIONS TO VISIBILITY.

NOT ALL STATIONS ARE QUALITY CONTROLLED. USE DATA WITH CAUTION...
ESPECIALLY DEWPOINT OBSERVATIONS.

SCZ027-030-031-034>040-042>050-301700-
...SOUTHEAST SOUTH CAROLINA...

CITY           SKY/WX    TMP DP  RH WIND       PRES   REMARKS
N CHARLESTON   CLOUDY    73  68  84 W9        29.93F
WATERFRONT PRK   N/A     73  69  87 W7        29.92S
MOUNT PLEASANT PTSUNNY   73  70  88 W8        29.93S
JOHNS ISLAND   CLOUDY    77  70  78 NW12      29.93F
PINOPOLIS      NOT AVBL
MONCKS CORNER  DRIZZLE   68  64  88 W3        29.93S
SUMMERVILLE    LGT RAIN  70  70 100 W6        29.95S
BEAUFORT MCAS  MOSUNNY   80  68  66 NW12      29.94F
BEAUFORT ARPT  PTSUNNY   79  68  69 NW10G16   29.94F
HILTON HEAD IS MOSUNNY   79  68  69 W7        29.97S
WALTERBORO     CLOUDY    79  72  78 NW8       29.96S
ALLENDALE      PTSUNNY   77  70  78 VRB5G12   29.96S

...SOUTHERN MIDLANDS AND PEE DEE...

CITY           SKY/WX    TMP DP  RH WIND       PRES   REMARKS
GEORGETOWN     CLOUDY    73  70  88 SW8       29.92S
KINGSTREE      CLOUDY    75  68  78 CALM      29.91F
ORANGEBURG     CLOUDY    72  68  87 N5        29.96S
BARNWELL       FAIR      81  75  83 W10G16    29.98S
AIKEN          CLOUDY    75  66  73 NW12      30.03S
MANNING        CLOUDY    70  70 100 NW7       29.93S
COLUMBIA       PTSUNNY   78  66  66 VRB6      29.96F
SUMTER         LGT RAIN  71  69  93 N12       29.93S
FLORENCE       CLOUDY    78  70  76 SE6       29.93F
MYRTLE BEACH   LGT RAIN  79  66  65 S14       29.95S FOG
N MYRTLE BEACH PTSUNNY   78  70  76 SE9       29.93F

$$

GAZ063-065-086>088-099>101-113>116-118-119-134>141-150-301700-
...SOUTHEAST GEORGIA...

CITY           SKY/WX    TMP DP  RH WIND       PRES   REMARKS
SAVANNAH ARPT  PTSUNNY   82  68  62 W14       29.96F
HUNTER AAF     MOSUNNY   81  72  72 W8        29.94S
FORT STEWART   CLOUDY    83  65  54 W15       29.95F
STATESBORO     PTSUNNY   81  72  72 N10       29.98F
SYLVANIA       PTSUNNY   81  71  71 NW10      29.99S
CLAXTON        FAIR      84  69  59 W14       29.98F

...CSRA...CENTRAL AND FAR SOUTHEAST GEORGIA...

CITY           SKY/WX    TMP DP  RH WIND       PRES   REMARKS
THOMSON        CLOUDY    83  68  60 CALM      30.05F
AUGUSTA-BUSH   PTSUNNY   81  67  62 N13       29.99F
AUGUSTA-DANIEL PTSUNNY   80  66  62 NW8       30.01S
SWAINSBORO     FAIR      82  64  54 NW9G17    30.01S
VIDALIA        MOSUNNY   82  64  54 NW7       30.00F
EASTMAN        FAIR      84  65  51 N6        30.04F
HAZLEHURST     FAIR      87  63  45 NW3       30.00S
ALMA           SUNNY     86  64  47 NW10      30.00F
WAYCROSS       SUNNY     86  65  49 N5        30.00S
JESUP          FAIR      81  63  54 NW14      29.98F
BAXLEY         FAIR      88  64  45 NW10      29.99F
BRUNSWICK      MOSUNNY   90  68  48 W7        29.99S HX  93
SAINT SIMONS   MOSUNNY   85  64  49 W9        29.98F

$$

SCZ027-028-034-036>038-045-046-048>050-GAZ119-141-301700-
...LAKE AND SUPPLEMENTAL COASTAL OBSERVATIONS...

STATION/POSITION TIME  TEMP    WIND        PRES    WAVE   SWELL
                       AIR SEA DIR/SP/G            HT/PER HT/PER/DIR
                 (UTC) (F)     (DEG/KT/KT) (MB)    (FT/S) (FT/S/D)
WINYAH BAY       1445   75     190/  6     1012.0
LAKE MURRAY      1500   76     330/  2/  6 1014.6F
ACE BASIN NERRS  NOT AVBL
FORT PULASKI     1500   76 75  280/ 12/ 14 1014.9F
SAPELO ISLAND    1500   75     270/  5     1015.0F

$$

ANZ835-935-AMZ111-154-330-350-352-354-370-450-454-472-301700-
...C-MAN AND BUOY OBSERVATIONS...

STATION/POSITION TIME  TEMP    WIND        PRES    WAVE   SWELL
                       AIR SEA DIR/SP/G            HT/PER HT/PER/DIR
                 (UTC) (F)     (DEG/KT/KT) (MB)    (FT/S) (FT/S/D)
BUOY 41004       1550   74 77  240/ 12/ 16 1013.3F   4/ 8   3/ 8
BUOY 41008       1550   74 76  260/ 10/ 12 1014.9F   2/ 8   2/ 90/ 8
FOLLY BEACH CMAN 1600   75     300/  6/  9 1013.4F
CAPERS NEARSHORE 1508   73 76  260/ 12/ 17 1013.3F
FRIPP NEARSHORE  1508   72 75  290/  6/  8 1013.7F


STATION/POSITION TIME  TEMP    WIND        PRES    WAVE   SWELL
                       AIR SEA DIR/SP/G            HT/PER HT/PER/DIR
                 (UTC) (F)     (DEG/KT/KT) (MB)    (FT/S) (FT/S/D)
5E ST. MARYS GA  1601      79                N/A     2/ 8
FRYING PAN BUOY  1500   78 78  170/ 14/ 16 1014.3F
BUOY 41025       1550   75 80  230/ 16/ 23 1016.3F   7/ 7   3/140/ 8
CAPE LOOKOUT NC  1500   72      90/ 11/ 13 1015.6F
BUOY 41002       1550   73 75  130/ 14/ 16 1016.3F   5/ 8   3/100/ 8
BUOY 41010       1520   79 80  190/  8/ 10 1016.6S
ST AUGUSTINE FL  1600   85 80  290/  9/ 14 1016.5F


$$




USA.gov is the U.S. government's official web portal to all federal, state and local government web resources and services.